Tracking 25709 objects as of 23-May-2022
HD Live streaming from Space Station
objects crossing your sky now

STARLINK-3141

Track STARLINK-3141 now!
10-day predictions
STARLINK-3141 is classified as:


NORAD ID: 49459
Int'l Code: 2021-104BD
Perigee: 545.2 km
Apogee: 548.5 km
Inclination: 53.2 °
Period: 95.4 minutes
Semi major axis: 6917 km
RCS: Unknown
Launch date: November 13, 2021
Source: United States (US)
Launch site: AIR FORCE EASTERN TEST RANGE (AFETR)
aabbcc
Your satellite tracking list
Your tracking list is empty




NASA's NSSDC Master Catalog

Two Line Element Set (TLE):
1 49459U 21104BD  22143.58334491 -.00050943  00000-0 -32044-2 0  9996
2 49459  53.2194 321.5900 0002320  24.4344 351.4096 15.08850495  1302
Source of the keplerian elements: AFSPC